Lapse_Rate
6.3 5.8 5.9 6.5 6.7 6.6 6.9 7.3 6.9 7.6 6.9 6.7 6.8 6.9 7.0 6.9 6.9 6.8 6.8 6.6 6.2 6.0 6.0 6.0 5.9 5.7 5.4 5.4 5.5 5.3 5.1 5.1 5.1 5.1 5.2 5.2 5.2 5.2 5.0 5.0 4.8 4.7 4.8 5.0
6.1 5.8 6.4 6.2 6.7 6.7 6.8 7.2 7.3 7.3 7.0 6.6 6.6 7.1 6.7 6.8 7.0 6.8 6.6 6.4 6.2 6.0 6.1 6.0 5.7 5.5 5.4 5.3 5.3 5.2 5.0 4.9 4.9 5.0 5.0 5.1 5.0 5.0 4.9 4.8 4.7 4.7 4.9 5.2
5.8 6.2 6.3 6.5 6.5 6.4 6.5 6.7 6.9 6.9 6.8 6.5 6.5 6.7 6.8 7.0 6.9 6.6 6.5 6.1 5.8 5.9 5.9 5.7 5.5 5.4 5.3 5.3 5.2 5.0 4.8 4.8 4.8 4.9 4.9 4.9 4.9 4.9 4.8 4.8 4.8 4.9 5.0 5.0
6.0 6.4 6.6 6.4 6.4 6.5 6.3 6.6 6.7 6.6 6.6 6.8 6.4 7.5 7.2 7.2 7.2 6.9 6.8 6.6 6.3 6.2 5.9 5.6 5.4 5.3 5.3 5.2 5.1 4.9 4.7 4.6 4.7 4.7 4.8 4.8 4.8 4.8 4.8 4.8 4.9 5.0 4.9 4.9
5.8 6.2 6.4 6.3 6.5 6.5 6.4 6.7 6.5 6.4 6.4 6.3 6.2 6.1 6.9 7.2 7.2 7.4 7.1 6.9 6.4 6.1 5.9 5.6 5.3 5.2 5.2 5.1 4.9 4.7 4.6 4.6 4.7 4.7 4.8 4.8 4.7 4.7 4.7 4.9 5.0 4.8 4.8 4.8
6.4 6.8 6.6 6.4 6.7 6.6 6.6 6.6 6.5 6.2 6.1 6.0 6.4 6.2 6.7 7.2 7.6 7.3 7.3 6.9 6.5 6.2 5.9 5.4 5.1 5.1 5.1 5.0 4.9 4.7 4.5 4.5 4.5 4.6 4.6 4.5 4.6 4.8 4.9 4.9 4.8 4.8 4.7 4.5
5.9 6.4 6.4 6.5 6.6 6.2 6.2 6.3 6.1 6.1 5.5 5.9 5.5 5.4 6.4 7.0 7.5 7.5 7.4 7.1 6.7 6.3 5.9 5.6 5.4 5.3 5.2 5.1 4.8 4.6 4.5 4.6 4.7 4.7 4.7 4.8 4.9 5.0 5.0 4.9 4.8 4.6 4.4 4.2
5.7 5.5 6.0 6.5 6.3 6.3 5.8 6.3 6.4 6.2 6.0 6.6 5.1 5.4 6.3 7.2 7.3 7.3 7.3 7.3 6.9 6.5 6.1 5.6 5.3 5.4 5.3 5.0 4.8 4.8 4.9 5.0 5.0 5.0 4.9 4.9 5.0 5.0 4.9 4.7 4.5 4.3 4.2 4.1
6.8 6.8 6.8 6.7 6.5 6.3 5.8 5.9 6.4 6.3 5.1 5.8 6.0 5.6 6.4 7.2 7.4 7.2 7.3 7.2 7.1 6.7 6.2 6.0 5.9 5.6 5.4 5.1 4.9 4.9 5.0 5.0 5.0 5.0 5.0 5.0 5.0 4.9 4.7 4.5 4.3 4.2 4.1 4.0
7.2 7.0 6.2 6.1 5.9 5.9 6.1 6.0 5.9 6.1 5.5 6.5 5.8 5.2 7.0 7.5 7.6 7.5 7.4 7.1 6.8 6.5 6.3 6.1 5.9 5.6 5.3 5.1 4.9 4.9 4.9 5.0 5.0 5.0 4.9 4.9 4.9 4.6 4.4 4.3 4.1 4.0 3.9 3.9
6.7 7.1 5.6 5.5 5.5 5.6 5.6 5.8 6.0 6.0 6.0 6.9 6.8 6.6 7.3 7.4 7.4 7.4 7.2 6.8 6.8 6.7 6.5 6.2 5.8 5.5 5.2 5.1 5.0 4.9 5.0 5.1 5.1 5.2 5.1 5.0 4.8 4.5 4.4 4.2 4.2 4.2 4.0 3.9
6.5 6.6 5.8 5.3 5.6 5.8 5.7 5.7 6.1 6.5 5.2 5.6 5.4 6.5 7.1 7.3 7.7 7.5 7.2 7.1 6.7 6.3 6.1 5.9 5.5 5.3 5.2 5.1 5.1 5.2 5.2 5.2 5.2 5.1 5.0 4.8 4.5 4.4 4.3 4.2 4.1 4.0 3.8 3.8
6.7 6.6 5.4 5.1 5.0 5.2 5.2 5.5 5.9 6.2 6.3 5.8 6.4 6.6 7.3 7.5 7.6 7.4 7.3 7.1 6.9 6.6 6.2 5.8 5.6 5.4 5.3 5.3 5.2 5.3 5.2 5.1 5.1 5.0 4.8 4.6 4.6 4.4 4.2 4.1 4.0 4.0 3.9 3.9
6.8 6.9 6.7 6.9 6.6 6.4 5.4 5.7 5.6 5.9 6.0 6.1 6.0 7.1 7.3 7.7 7.7 7.3 7.2 6.8 6.6 6.4 6.3 6.0 5.7 5.6 5.5 5.4 5.5 5.4 5.1 5.0 4.9 4.7 4.6 4.5 4.3 4.2 4.2 4.2 4.2 4.2 4.1 4.1
6.2 6.2 6.4 6.5 6.7 6.9 7.2 7.4 6.9 6.2 6.5 6.2 6.7 7.1 7.7 7.6 7.4 7.1 6.9 6.7 6.5 6.3 6.2 6.0 5.8 5.7 5.7 5.6 5.3 5.0 4.9 4.9 4.7 4.6 4.5 4.3 4.4 4.4 4.3 4.3 4.3 4.2 4.3 4.3
5.9 6.2 6.3 6.2 6.6 6.7 6.9 7.1 6.7 6.7 6.0 5.8 6.3 6.9 7.3 7.2 6.8 6.6 6.6 6.5 6.3 6.0 5.9 5.8 5.8 5.9 5.7 5.4 5.1 4.9 4.7 4.6 4.5 4.5 4.4 4.4 4.3 4.3 4.4 4.5 4.5 4.6 4.6 4.5
6.3 6.1 6.3 6.0 6.3 6.3 6.0 6.9 7.3 7.2 6.8 6.9 6.5 7.4 7.2 7.0 6.8 6.6 6.5 6.3 6.1 5.9 5.9 5.9 5.8 5.7 5.4 5.0 4.7 4.5 4.5 4.4 4.4 4.4 4.4 4.4 4.4 4.8 4.8 4.8 4.9 4.7 4.5 4.3
6.8 6.3 6.7 6.2 5.6 5.9 6.4 6.7 7.0 7.1 7.4 7.4 7.3 7.5 7.1 6.8 6.6 6.3 6.1 5.9 6.0 5.9 5.8 5.7 5.6 5.2 4.8 4.5 4.4 4.4 4.5 4.4 4.4 4.3 4.5 4.9 5.0 5.0 5.0 4.8 4.6 4.5 4.2 4.0
6.7 6.7 6.5 6.2 5.3 5.7 6.1 6.6 7.1 7.2 7.5 7.3 7.0 7.1 7.0 6.9 6.7 6.3 6.1 5.9 5.6 5.5 5.6 5.4 4.9 4.6 4.3 4.2 4.3 4.4 4.4 4.3 4.4 4.8 5.0 5.2 5.1 4.9 4.7 4.6 4.4 4.1 4.0 3.9
6.5 6.4 6.7 6.1 6.2 6.2 6.5 6.8 7.0 6.9 6.7 7.2 7.2 7.1 7.0 7.0 6.5 6.8 6.5 6.2 6.0 5.6 5.1 4.7 4.4 4.1 4.1 4.2 4.2 4.2 4.4 4.6 4.8 5.1 5.2 5.0 4.8 4.6 4.4 4.2 4.1 4.0 4.0 3.8
6.4 6.2 6.3 6.2 6.3 6.2 6.5 6.9 6.8 6.5 7.0 7.5 7.3 7.2 7.0 6.9 7.0 6.6 6.5 6.2 5.8 5.1 4.6 4.1 4.0 4.0 4.1 4.2 4.3 4.6 4.9 5.0 5.1 5.1 4.9 4.7 4.5 4.3 4.2 4.2 4.1 3.9 3.8 4.3
7.0 6.6 6.2 6.3 6.4 6.6 6.6 7.0 6.8 7.1 7.0 7.0 6.8 6.9 7.0 7.0 6.7 6.4 6.0 5.6 5.0 4.4 4.1 4.0 4.1 4.2 4.4 4.6 4.8 5.0 5.1 5.1 5.0 4.9 4.7 4.6 4.5 4.4 4.2 4.1 4.0 4.2 5.0 5.7
7.1 7.2 7.3 6.9 6.9 7.0 6.7 6.9 6.8 6.6 6.4 6.5 6.6 6.7 6.7 6.5 6.2 5.8 5.2 4.6 4.2 4.1 4.1 4.2 4.4 4.6 4.7 4.8 4.8 5.0 5.0 5.0 4.9 4.7 4.7 4.6 4.4 4.3 4.2 4.2 4.6 5.4 6.1 6.5
6.9 7.1 7.2 7.0 6.7 6.9 6.9 6.7 6.8 6.8 6.6 6.4 6.4 6.4 6.3 5.8 5.2 4.9 4.3 4.1 4.1 4.2 4.4 4.6 4.7 4.7 4.7 4.7 4.9 4.9 4.9 4.8 4.8 4.8 4.6 4.5 4.4 4.3 4.4 4.9 5.7 6.2 6.5 6.6
7.0 6.8 6.8 6.9 6.6 6.4 6.3 6.3 6.2 6.0 5.9 5.9 5.8 5.5 5.1 4.4 4.4 4.2 4.1 4.2 4.4 4.7 4.7 4.6 4.6 4.7 4.8 5.0 5.1 5.0 4.9 4.7 4.7 4.6 4.5 4.4 4.3 4.5 5.2 5.9 6.4 6.4 6.5 6.6
6.7 6.7 6.5 6.5 6.1 5.9 5.6 5.7 5.6 5.6 5.5 5.1 5.0 4.6 4.4 4.5 4.5 4.5 4.5 4.7 4.6 4.5 4.6 4.7 4.9 4.9 5.0 5.0 5.0 4.7 4.7 4.6 4.6 4.6 4.5 4.5 4.9 5.7 6.2 6.6 6.5 6.4 6.6 6.6
Wind_Speed
11 11 18 21 15 1 12 14 9 8 7 10 16 12 13 10 13 15 16 15 14 14 12 11 11 11 10 9 9 8 8 8 6 6 6 5 5 5 5 7 7 7 8 8
8 19 18 11 11 5 11 14 10 3 6 9 7 15 14 14 16 19 18 17 16 15 14 13 13 12 11 10 9 7 7 6 5 5 4 3 5 4 5 5 6 6 7 8
18 15 11 11 10 10 8 12 9 2 8 5 4 8 12 14 14 15 18 17 16 17 17 15 14 13 10 10 9 8 7 6 5 6 6 6 6 4 3 3 3 5 6 6
10 7 16 12 17 15 15 7 8 11 10 4 3 4 7 14 15 17 19 18 17 18 16 15 15 14 13 10 8 8 7 7 5 5 5 5 4 4 3 3 3 4 6 6
8 12 15 16 12 15 4 8 8 6 4 2 6 4 3 6 13 19 19 20 18 18 18 17 16 14 12 10 9 8 8 7 7 6 6 5 5 4 3 3 3 3 4 4
2 0 4 5 5 5 17 11 7 4 2 6 11 10 7 7 7 8 18 17 18 18 18 16 14 13 12 9 9 9 9 8 7 7 6 6 6 5 4 3 2 2 2 3
4 6 3 8 10 9 6 15 4 4 4 6 1 7 11 4 4 3 13 18 18 18 18 17 16 14 13 12 11 10 10 9 8 7 6 6 6 5 4 2 2 3 4 4
11 7 11 8 5 11 16 10 5 8 6 5 3 8 4 2 2 2 5 14 16 18 17 17 16 14 13 13 12 11 10 9 8 7 6 5 4 3 2 2 3 3 4 5
12 7 2 2 3 6 8 8 3 6 1 3 6 5 7 6 5 5 11 15 17 18 17 17 15 13 13 12 11 11 10 8 7 6 5 4 4 3 2 2 3 4 5 6
6 6 3 3 3 3 3 11 4 2 6 6 5 5 4 11 12 10 13 16 17 17 16 14 13 12 11 10 9 9 8 8 7 6 5 3 3 2 2 3 5 6 7 9
7 3 5 6 10 13 5 6 2 2 3 4 3 4 1 5 14 15 14 16 17 17 16 14 12 11 11 10 10 10 9 9 7 5 3 2 1 2 3 5 6 7 9 11
9 5 5 8 2 4 4 7 10 5 6 2 2 2 2 6 8 11 14 15 16 16 15 13 13 12 12 11 10 9 8 7 4 3 2 1 2 3 5 7 9 11 11 14
13 7 6 4 3 3 8 9 8 4 1 8 7 3 2 3 6 9 15 16 16 16 15 13 13 12 12 11 10 8 6 5 3 2 1 2 4 6 8 10 11 12 12 13
16 6 13 13 4 11 10 18 15 11 4 8 9 5 8 9 11 12 15 17 17 15 15 14 13 12 11 9 8 6 5 3 2 0 3 5 7 8 9 10 11 12 12 13
10 7 9 3 3 6 6 18 23 18 18 10 11 10 12 16 16 16 17 17 17 16 15 14 13 11 9 8 6 5 3 2 0 3 5 7 8 9 10 11 12 12 13 13
3 4 4 3 3 4 4 10 22 22 17 13 2 10 3 10 14 15 18 18 18 17 15 14 12 10 8 7 5 3 2 1 2 4 6 8 9 10 11 12 13 14 15 15
10 7 4 7 4 3 5 16 21 18 19 17 14 9 13 10 16 19 19 18 18 17 15 13 11 8 6 4 3 2 1 2 4 5 7 8 10 11 12 13 14 15 16 16
11 8 2 4 5 6 1 2 10 12 14 11 5 9 11 12 10 13 12 17 17 16 13 11 8 6 4 3 1 1 2 3 4 7 8 10 11 12 13 14 15 15 15 16
2 8 5 6 6 2 2 5 9 11 10 16 11 12 13 17 17 9 10 13 16 14 11 8 6 4 3 2 1 2 4 5 6 8 10 11 11 13 14 14 15 15 15 15
2 1 3 4 6 8 2 4 4 4 5 15 14 17 20 17 9 7 14 14 14 12 9 7 5 4 2 2 2 3 5 7 9 10 11 12 12 13 14 14 15 14 15 16
5 3 9 5 3 1 3 6 4 8 2 11 14 17 19 10 2 20 16 14 12 10 8 6 4 2 2 2 3 5 7 8 9 10 11 12 12 13 13 14 14 14 15 15
7 7 4 3 4 7 5 5 6 3 5 11 14 15 12 17 20 20 16 14 11 9 7 5 3 2 3 3 4 7 8 9 9 10 11 12 12 11 11 14 13 14 14 15
5 5 7 3 2 3 4 3 4 6 14 12 17 16 20 20 19 17 13 11 9 7 5 3 2 2 3 3 4 8 9 9 10 11 12 12 12 11 11 12 13 12 13 12
1 1 4 6 3 5 6 8 11 12 16 18 18 19 19 19 16 14 11 9 7 5 4 2 0 3 5 5 6 7 9 9 10 11 12 11 11 11 11 9 10 10 10 11
1 3 7 5 6 11 9 11 16 18 18 18 17 18 17 17 13 12 9 7 6 4 3 2 2 4 6 7 8 8 9 9 10 11 11 10 9 11 11 10 10 11 12 12
4 3 2 3 11 6 10 13 18 20 19 19 19 15 12 13 11 10 8 6 5 4 2 1 4 6 7 8 9 9 9 10 11 10 9 8 9 9 9 10 10 15 19 20
Wind_Direction
191 199 203 201 201 83 186 200 197 201 180 196 219 239 222 190 203 201 194 190 187 181 164 162 159 157 154 154 151 149 149 152 158 157 153 149 120 108 93 77 62 51 42 36
182 215 201 184 186 150 174 185 193 145 176 212 209 243 231 201 209 204 198 195 190 174 169 167 165 164 168 161 154 148 143 152 165 166 138 124 128 99 93 88 69 50 43 36
202 206 162 172 171 177 198 209 179 205 165 212 253 252 208 211 209 206 209 202 191 183 176 172 170 170 165 165 161 152 144 139 136 133 125 118 115 123 137 89 75 45 36 32
224 176 176 181 194 194 211 193 162 149 181 230 235 256 202 195 205 207 199 197 190 185 180 172 171 168 172 163 151 142 136 126 122 145 150 160 138 132 92 70 56 50 36 34
184 177 177 191 197 189 173 153 148 154 163 248 188 250 199 169 217 212 203 196 190 183 178 174 174 169 163 156 152 143 132 123 118 116 119 119 110 104 108 91 70 50 48 46
145 295 199 169 106 195 138 120 92 104 154 248 224 225 228 194 215 205 196 193 187 180 175 171 165 159 156 151 148 145 140 128 124 118 113 113 119 120 119 91 70 21 357 348
158 174 154 152 105 142 189 162 144 193 193 236 159 217 252 186 165 160 193 185 178 173 169 165 165 166 160 158 155 154 152 140 136 130 124 119 117 112 107 85 14 340 340 343
177 198 183 172 206 179 182 198 185 188 193 192 144 227 227 149 153 169 189 167 165 169 169 168 168 165 163 162 162 159 155 145 143 135 126 121 112 103 90 39 359 340 331 331
186 173 132 175 157 170 168 211 70 103 27 205 189 239 225 167 170 160 148 157 165 166 167 164 160 162 160 161 162 158 151 141 134 130 125 109 97 78 41 353 331 326 316 315
185 147 187 127 151 52 233 145 160 232 181 219 192 257 238 191 185 165 165 168 164 162 159 156 154 153 154 148 143 142 140 134 127 118 111 100 77 30 350 321 313 309 306 307
161 124 139 161 213 181 156 188 200 181 277 225 195 213 34 200 175 173 170 166 161 158 155 151 147 145 140 138 141 140 136 133 129 124 112 101 58 332 313 306 308 306 304 302
172 117 155 187 27 308 253 201 186 192 188 225 355 238 117 112 141 165 161 157 156 153 150 148 148 146 145 140 138 132 131 127 124 128 125 91 298 309 312 309 306 302 299 299
171 171 125 156 210 195 219 194 200 109 77 193 181 198 152 141 149 162 160 159 154 150 148 145 144 145 143 140 137 135 135 136 135 140 346 324 320 316 307 302 299 296 296 296
169 161 209 212 188 145 197 199 194 192 189 181 220 164 189 184 172 165 164 160 153 152 148 145 144 144 142 140 138 140 138 136 118 3 316 308 306 303 302 302 300 297 296 294
181 177 194 54 128 171 193 195 189 200 208 200 219 211 188 188 177 167 159 155 153 153 153 152 149 145 141 139 139 146 142 146 303 298 303 300 303 301 301 301 300 299 296 295
195 139 114 130 147 184 192 204 200 211 210 237 195 210 106 141 145 156 162 161 160 158 153 150 146 144 145 145 147 149 172 277 306 300 299 305 302 306 305 303 301 299 297 296
160 143 165 185 151 143 269 208 191 200 206 207 206 206 155 165 171 170 165 166 161 157 152 149 148 146 144 147 164 211 300 306 290 296 302 305 310 309 307 305 302 299 300 301
169 140 110 122 158 206 327 41 196 189 208 200 130 157 169 161 140 151 162 160 156 151 147 144 142 144 142 136 167 287 275 293 302 308 311 312 310 306 304 301 300 301 302 301
231 170 131 162 207 16 182 189 167 186 212 192 160 139 126 123 112 104 152 155 146 143 137 133 131 123 124 125 86 298 296 316 318 313 308 308 306 304 303 303 304 302 302 300
89 92 178 167 192 213 124 152 179 179 237 179 157 154 148 152 159 152 147 135 128 126 129 133 130 130 122 78 1 319 322 315 306 311 307 304 303 300 300 302 302 300 298 298
148 167 204 179 201 257 132 146 164 175 182 158 153 153 157 159 69 138 134 126 123 125 127 128 125 98 62 28 347 313 309 305 311 305 300 300 300 300 300 300 302 303 302 299
156 153 177 161 203 229 147 115 194 105 104 135 138 146 124 116 120 128 127 126 128 127 125 110 107 66 28 358 321 305 299 308 304 302 299 298 302 304 303 303 304 303 303 303
157 170 166 214 119 59 38 40 110 128 131 129 124 123 123 123 124 127 127 127 123 120 115 105 77 351 338 312 295 292 304 310 307 305 303 306 306 305 307 307 310 309 307 307
84 26 95 152 55 73 79 84 106 121 121 118 116 122 120 121 127 124 123 125 124 115 113 110 71 305 302 302 301 302 310 310 309 308 309 309 310 315 314 311 305 301 305 307
14 115 115 84 112 102 72 110 118 110 109 109 110 115 119 121 121 124 119 118 123 125 128 169 256 286 306 318 316 317 316 318 313 310 308 309 311 316 310 303 304 306 306 311
359 99 155 111 166 91 123 121 120 113 114 115 112 106 101 110 113 121 126 131 137 140 147 319 326 321 320 316 317 318 320 320 312 309 312 315 311 308 305 308 309 310 313 315